Borden, Ontario

2:03 AM EDT on April 25, 2018 (GMT -0400)
Borden

Weather History for CYBN - October, 2012

Change the Weather History Date:

Saturday, October 6, 2012

  Actual Average Record
Temperature  
Mean Temperature 44 °F -  
Max Temperature 51 °F 52 °F 84 °F (2005)
Min Temperature 37 °F 35 °F 26 °F (2006)
Degree Days  
Heating Degree Days 21    
Moisture  
Dew Point 37 °F    
Average Humidity 71    
Maximum Humidity 87    
Minimum Humidity 47    
Precipitation  
Precipitation 0.02 in - - ()
Sea Level Pressure  
Sea Level Pressure 29.88 in    
Wind  
Wind Speed 9 mph ()    
Max Wind Speed 24 mph    
Max Gust Speed 30 mph    
Visibility 9.0 miles    
Events Rain    
Averages and records for this station are not official NWS values.
T = Trace of Precipitation, MM = Missing Value Source: Averaged Metar Reports

Daily Weather History Graph

Daily Weather History Graph

Search for Another Location

Airport or City:

Astronomy

Oct. 06, 2012 Rise Set
Actual Time 7:24 AM EDT 6:50 PM EDT
Civil Twilight 6:55 AM EDT 7:19 PM EDT
Nautical Twilight 6:21 AM EDT 7:52 PM EDT
Astronomical Twilight 5:47 AM EDT 8:26 PM EDT
Moon 10:54 PM EDT (10/6) 1:27 PM EDT (10/6)
Length of Visible Light 12h 24m
Length of Day
11h 26m
Waning Gibbous, 65% of the Moon is Illuminated
Oct 6
Waning Gibbous
Oct 8
Last Quarter
Oct 15
New
Oct 21
First Quarter
Oct 29
Full

Hourly Weather History & Observations

Time (EDT) Temp. Windchill Dew Point Humidity Pressure Visibility Wind Dir Wind Speed Gust Speed Precip Events Conditions
12:00 AM 48.2 °F - 42.8 °F 82% 29.86 in 9.0 mi SSW 6.9 mph - N/A Rain Light Rain
12:53 AM 48.2 °F - 42.8 °F 82% 29.85 in 9.0 mi SSW 8.1 mph - N/A   Overcast
12:58 AM 48.2 °F - 42.8 °F 82% 29.84 in 9.0 mi SSW 8.1 mph - N/A Rain Light Rain
1:00 AM 48.2 °F - 42.8 °F 82% 29.85 in 9.0 mi SSW 8.1 mph - N/A Rain Light Rain
1:22 AM 48.2 °F - 42.8 °F 82% 29.83 in 9.0 mi SSW 8.1 mph - N/A   Overcast
2:00 AM 48 °F - 42 °F 73% 29.84 in 9 mi SW 8.1 mph - -   Overcast
2:00 AM 48.2 °F - 42.8 °F 82% 29.84 in 9.0 mi SW 8.1 mph - N/A   Overcast
2:11 AM 48.2 °F - 41.0 °F 76% 29.83 in 9.0 mi SW 9.2 mph - N/A Rain Light Rain
2:26 AM 48.2 °F - 41.0 °F 76% 29.83 in 9.0 mi SW 6.9 mph - N/A   Overcast
3:00 AM 48.2 °F - 42.8 °F 82% 29.83 in 9.0 mi SW 5.8 mph - N/A   Overcast
4:00 AM 48.2 °F - 41.0 °F 76% 29.81 in 9.0 mi WSW 6.9 mph - N/A   Mostly Cloudy
5:00 AM 44.6 °F 42.2 °F 39.2 °F 81% 29.82 in 9.0 mi SW 4.6 mph - N/A   Mostly Cloudy
6:00 AM 42.8 °F 40.1 °F 39.2 °F 87% 29.82 in 9.0 mi SSW 4.6 mph - N/A   Partly Cloudy
7:00 AM 42.8 °F 39.3 °F 39.2 °F 87% 29.82 in 9.0 mi SSW 5.8 mph - N/A   Overcast
8:00 AM 44 °F - 38 °F 73% 29.83 in 9 mi SW 6.9 mph - -  
8:00 AM 44.6 °F 40.7 °F 37.4 °F 76% 29.83 in 9.0 mi SW 6.9 mph - N/A   Scattered Clouds
9:00 AM 46.4 °F 41.9 °F 39.2 °F 76% 29.84 in 9.0 mi SW 9.2 mph - N/A   Overcast
10:00 AM 48.2 °F - 35.6 °F 62% 29.84 in 9.0 mi WSW 13.8 mph - N/A   Overcast
11:00 AM 48.2 °F - 32.0 °F 54% 29.86 in 9.0 mi WSW 13.8 mph 20.7 mph N/A   Overcast
12:00 PM 50.0 °F - 33.8 °F 54% 29.87 in 9.0 mi WSW 11.5 mph 23.0 mph N/A   Overcast
1:00 PM 48.2 °F - 35.6 °F 62% 29.87 in 9.0 mi WSW 19.6 mph 28.8 mph N/A   Overcast
2:00 PM 50 °F - 36 °F 47% 29.87 in 9 mi West 18.4 mph - -   Unknown Precipitation
2:00 PM 50.0 °F - 35.6 °F 58% 29.87 in 9.0 mi West 17.3 mph 28.8 mph N/A   Overcast
2:08 PM 48.2 °F - 35.6 °F 62% 29.85 in 9.0 mi West 10.4 mph 19.6 mph N/A Rain Light Rain
2:36 PM 48.2 °F - 37.4 °F 66% 29.86 in 9.0 mi West 21.9 mph 28.8 mph N/A   Mostly Cloudy
2:37 PM 48.2 °F - 37.4 °F 66% 29.86 in 9.0 mi West 20.7 mph 28.8 mph N/A Rain Light Rain
2:57 PM 46.4 °F 39.2 °F 37.4 °F 71% 29.86 in 9.0 mi WSW 18.4 mph - N/A   Mostly Cloudy
3:00 PM 46.4 °F 39.2 °F 37.4 °F 71% 29.88 in 9.0 mi SW 18.4 mph - N/A   Scattered Clouds
4:00 PM 50.0 °F - 35.6 °F 58% 29.89 in 9.0 mi WNW 16.1 mph - N/A   Mostly Cloudy
4:06 PM 48.2 °F - 33.8 °F 58% 29.88 in 9.0 mi West 24.2 mph 29.9 mph N/A Rain Light Rain
4:07 PM 46.4 °F 38.7 °F 33.8 °F 62% 29.88 in 9.0 mi West 20.7 mph 29.9 mph N/A Rain Light Rain
4:20 PM 48.2 °F - 35.6 °F 62% 29.88 in 9.0 mi West 15.0 mph 21.9 mph N/A   Overcast
4:28 PM 50.0 °F - 37.4 °F 62% 29.88 in 9.0 mi West 11.5 mph 20.7 mph N/A   Overcast
4:39 PM 48.2 °F - 37.4 °F 66% 29.88 in 9.0 mi West 9.2 mph 17.3 mph N/A Rain Light Rain
4:56 PM 46.4 °F 40.1 °F 35.6 °F 66% 29.90 in 9.0 mi West 15.0 mph 27.6 mph N/A   Overcast
5:00 PM 44.6 °F 37.8 °F 35.6 °F 71% 29.91 in 9.0 mi WSW 15.0 mph 21.9 mph N/A Rain Light Rain
5:12 PM 46.4 °F 40.7 °F 35.6 °F 66% 29.89 in 9.0 mi WSW 12.7 mph 19.6 mph N/A   Overcast
5:31 PM 48.2 °F - 35.6 °F 62% 29.90 in 9.0 mi West 13.8 mph 21.9 mph N/A Rain Light Rain
5:37 PM 46.4 °F 40.7 °F 35.6 °F 66% 29.91 in 9.0 mi WNW 12.7 mph 23.0 mph N/A Rain Light Rain
5:50 PM 44.6 °F 38.1 °F 33.8 °F 66% 29.91 in 9.0 mi West 13.8 mph 24.2 mph N/A   Overcast
6:00 PM 44.6 °F 37.8 °F 33.8 °F 66% 29.94 in 9.0 mi WSW 15.0 mph 20.7 mph N/A   Overcast
6:48 PM 44.6 °F 42.2 °F 35.6 °F 71% 29.94 in 9.0 mi West 4.6 mph - N/A Rain Light Rain
6:50 PM 44.6 °F 42.2 °F 35.6 °F 71% 29.94 in 9.0 mi West 4.6 mph - N/A Rain Light Rain
7:00 PM 44.6 °F 41.4 °F 35.6 °F 71% 29.97 in 9.0 mi West 5.8 mph - N/A Rain Light Rain
7:28 PM 42.8 °F 37.0 °F 35.6 °F 76% 29.95 in 9.0 mi WSW 10.4 mph - N/A   Mostly Cloudy
8:00 PM 40 °F - 35 °F 75% 29.99 in 9 mi SW 6.9 mph - -  
8:00 PM 41.0 °F 36.4 °F 35.6 °F 81% 29.99 in 9.0 mi SW 6.9 mph - N/A   Mostly Cloudy
9:00 PM 39.2 °F 35.9 °F 33.8 °F 81% 30.01 in 9.0 mi SW 4.6 mph - N/A   Clear
10:00 PM 37.4 °F 32.1 °F 33.8 °F 87% 30.02 in 9.0 mi SSW 6.9 mph - N/A   Mostly Cloudy
11:00 PM 39.2 °F 34.2 °F 33.8 °F 81% 30.02 in 9.0 mi WSW 6.9 mph - N/A   Clear